Home   Weather   Nieuwpoort-Bad   Past weeks
Flag for Belgium

Past Weather in Nieuwpoort-Bad, Belgium — Yesterday and Last 2 Weeks

Currently: 57 °F. Light rain. Passing clouds. (Weather station: Oostende Airport, Belgium). See more current weather

Past Weather in Nieuwpoort-Bad — Graph

°F

Nieuwpoort-Bad Temperature Yesterday

Maximum temperature yesterday: 57 °F (at 2:50 pm)
Minimum temperature yesterday: 43 °F (at 5:50 am)
Average temperature yesterday: 50 °F

High & Low Weather Summary for the Past Weeks

 TemperatureHumidityPressure
High63 °F (Oct 4, 3:20 pm)100% (Oct 5, 11:50 am)30.45 "Hg (Oct 5, 11:50 am)
Low41 °F (Oct 7, 8:20 am)44% (Oct 16, 2:50 pm)29.53 "Hg (Oct 5, 10:50 am)
Average53 °F82%30.18 "Hg
* Reported Oct 3 8:20 pm — Oct 18 8:50 pm, Nieuwpoort-Bad. Weather by CustomWeather, © 2021

Note: Actual official high and low records may vary slightly from our data, if they occured in-between our weather recording intervals... More about our weather records

Nieuwpoort-Bad Weather History for the Previous 24 Hours

Scroll right to see more
 ConditionsComfort  
Time TempWeatherWind HumidityBarometerVisibility
8:50 pm
Mon, Oct 18
57 °FPassing clouds.8 mph82%30.07 "HgN/A
8:20 pm57 °FPassing clouds.9 mph82%30.07 "HgN/A
7:50 pm57 °FPassing clouds.8 mph82%30.07 "HgN/A
7:20 pm57 °FPassing clouds.6 mph82%30.07 "HgN/A
6:50 pm57 °FClear.8 mph82%30.07 "Hg10 mi
6:20 pm57 °FSunny.9 mph82%30.07 "Hg10 mi
5:50 pm57 °FSunny.9 mph82%30.07 "Hg10 mi
5:20 pm59 °FSunny.8 mph77%30.07 "Hg10 mi
4:50 pm59 °FSunny.10 mph72%30.07 "Hg10 mi
4:20 pm59 °FSunny.10 mph72%30.09 "Hg10 mi
3:50 pm59 °FSunny.10 mph72%30.09 "Hg10 mi
2:50 pm57 °FPassing clouds.8 mph77%30.09 "HgN/A
1:50 pm55 °FPassing clouds.9 mph77%30.09 "HgN/A
1:20 pm54 °FSunny.13 mph77%30.09 "Hg10 mi
12:50 pm52 °FSunny.8 mph82%30.12 "Hg10 mi
12:20 pm52 °FSunny.9 mph82%30.12 "Hg10 mi
11:50 am50 °FSunny.10 mph82%30.12 "Hg10 mi
11:20 am50 °FSunny.9 mph82%30.12 "Hg10 mi
10:50 am48 °FSunny.12 mph87%30.12 "Hg10 mi
10:20 am46 °FSunny.8 mph93%30.15 "Hg10 mi
9:50 am45 °FSunny.9 mph93%30.15 "Hg10 mi
9:20 am45 °FSunny.8 mph87%30.15 "Hg10 mi
8:50 am43 °FClear.6 mph93%30.15 "Hg5 mi
8:20 am43 °FClear.6 mph93%30.15 "Hg4 mi
7:50 am43 °FClear.7 mph93%30.15 "Hg4 mi
7:20 am41 °FClear.7 mph93%30.12 "Hg4 mi
6:50 am43 °FClear.3 mph93%30.12 "Hg6 mi
6:20 am43 °FPassing clouds.3 mph93%30.12 "HgN/A
5:50 am43 °FClear.3 mph93%30.12 "Hg10 mi
5:20 am43 °FClear.6 mph93%30.12 "Hg10 mi
4:50 am43 °FClear.7 mph93%30.12 "Hg10 mi
4:20 am43 °FClear.7 mph93%30.12 "Hg10 mi
3:50 am43 °FClear.6 mph87%30.15 "Hg10 mi
3:20 am43 °FClear.7 mph87%30.15 "Hg10 mi
2:50 am43 °FClear.7 mph93%30.15 "Hg10 mi
2:20 am43 °FClear.8 mph93%30.15 "Hg10 mi
1:50 am43 °FClear.6 mph93%30.15 "Hg10 mi
1:20 am45 °FClear.6 mph87%30.15 "Hg10 mi
12:50 am45 °FClear.7 mph93%30.15 "Hg10 mi
12:20 am45 °FClear.8 mph93%30.15 "Hg10 mi
11:50 pm
Sun, Oct 17
45 °FClear.7 mph93%30.15 "Hg10 mi
11:20 pm45 °FClear.6 mph93%30.15 "Hg10 mi
10:50 pm46 °FClear.6 mph87%30.12 "Hg10 mi
10:20 pm48 °FClear.6 mph82%30.12 "Hg10 mi
Weather by CustomWeather, © 2021

See weather overview